Elefsis, Greece

7:07 PM EEST on July 24, 2017 (GMT +0300)
Elefsis Air Base

Weather History for LGEL - November, 2011

Change the Weather History Date:

Thursday, November 17, 2011

  Actual Average Record
Temperature  
Mean Temperature 46 °F -  
Max Temperature 53 °F 58 °F 75 °F (1999)
Min Temperature 39 °F 46 °F 39 °F (2011)
Degree Days  
Heating Degree Days 19    
Moisture  
Dew Point 36 °F    
Average Humidity 68    
Maximum Humidity 81    
Minimum Humidity 54    
Precipitation  
Precipitation 0.00 in - - ()
Sea Level Pressure  
Sea Level Pressure 30.22 in    
Wind  
Wind Speed 5 mph ()    
Max Wind Speed 12 mph    
Max Gust Speed -    
Visibility 6.2 miles    
Events      
Averages and records for this station are not official NWS values.
T = Trace of Precipitation, MM = Missing Value Source: Averaged Metar Reports

Daily Weather History Graph

Daily Weather History Graph

Search for Another Location

Airport or City:

Trip Planner

Search our weather history database for the weather conditions in past years. The results will help you decide how hot, cold, wet, or windy it might be!

Date:

Astronomy

Nov. 17, 2011 Rise Set
Actual Time 7:08 AM EET 5:12 PM EET
Civil Twilight 6:39 AM EET 5:40 PM EET
Nautical Twilight 6:08 AM EET 6:12 PM EET
Astronomical Twilight 5:36 AM EET 6:44 PM EET
Moon 11:10 PM EET (11/17) 12:08 PM EET (11/17)
Length of Visible Light 11h 01m
Length of Day
10h 04m
Waning Gibbous, 63% of the Moon is Illuminated
Nov 17
Waning Gibbous
Nov 18
Last Quarter
Nov 25
New
Dec 2
First Quarter
Dec 10
Full

Hourly Weather History & Observations

Time (EET) Temp. Windchill Dew Point Humidity Pressure Visibility Wind Dir Wind Speed Gust Speed Precip Events Conditions
12:20 AM 42.8 °F - 33.8 °F 70% 30.18 in 6.2 mi Calm Calm - N/A   Partly Cloudy
12:50 AM 41.0 °F 38.0 °F 33.8 °F 76% 30.18 in 6.2 mi North 4.6 mph - N/A   Partly Cloudy
1:20 AM 41.0 °F 38.0 °F 33.8 °F 76% 30.18 in 6.2 mi North 4.6 mph - N/A   Partly Cloudy
1:50 AM 39.2 °F 35.9 °F 32.0 °F 75% 30.18 in 6.2 mi NNE 4.6 mph - N/A   Partly Cloudy
2:20 AM 39.2 °F - 32.0 °F 75% 30.18 in 6.2 mi Calm Calm - N/A   Partly Cloudy
2:50 AM 41.0 °F - 33.8 °F 76% 30.18 in 6.2 mi Calm Calm - N/A   Partly Cloudy
3:20 AM 41.0 °F - 33.8 °F 76% 30.18 in 6.2 mi Calm Calm - N/A   Partly Cloudy
3:50 AM 41.0 °F - 33.8 °F 76% 30.18 in 6.2 mi Calm Calm - N/A   Partly Cloudy
4:20 AM 41.0 °F - 33.8 °F 76% 30.18 in 6.2 mi Calm Calm - N/A   Scattered Clouds
4:50 AM 41.0 °F 37.1 °F 33.8 °F 76% 30.18 in 6.2 mi ENE 5.8 mph - N/A   Scattered Clouds
5:20 AM 42.8 °F 40.1 °F 35.6 °F 76% 30.18 in 6.2 mi NNW 4.6 mph - N/A   Partly Cloudy
5:50 AM 42.8 °F 40.1 °F 35.6 °F 76% 30.18 in 6.2 mi NNW 4.6 mph - N/A   Partly Cloudy
6:20 AM 41.0 °F 37.1 °F 33.8 °F 76% 30.18 in 6.2 mi North 5.8 mph - N/A   Partly Cloudy
6:50 AM 41.0 °F 35.8 °F 33.8 °F 76% 30.21 in 6.2 mi NNW 8.1 mph - N/A   Partly Cloudy
7:20 AM 41.0 °F 36.4 °F 33.8 °F 76% 30.21 in 6.2 mi NNW 6.9 mph - N/A   Partly Cloudy
7:50 AM 39.2 °F 35.9 °F 33.8 °F 81% 30.21 in 6.2 mi NNW 4.6 mph - N/A   Partly Cloudy
8:20 AM 39.2 °F 35.9 °F 33.8 °F 81% 30.21 in 6.2 mi NNW 4.6 mph - N/A   Partly Cloudy
8:50 AM 46.4 °F 44.3 °F 39.2 °F 76% 30.21 in 6.2 mi North 4.6 mph - N/A   Mostly Cloudy
9:20 AM 48.2 °F - 37.4 °F 66% 30.21 in 6.2 mi North 6.9 mph - N/A   Mostly Cloudy
9:50 AM 48.2 °F - 37.4 °F 66% 30.21 in 6.2 mi NNW 4.6 mph - N/A   Mostly Cloudy
10:20 AM 48.2 °F - 37.4 °F 66% 30.21 in 6.2 mi NNW 9.2 mph - N/A   Mostly Cloudy
10:50 AM 50.0 °F - 39.2 °F 66% 30.24 in 6.2 mi NW 11.5 mph - N/A   Mostly Cloudy
11:20 AM 50.0 °F - 39.2 °F 66% 30.24 in 6.2 mi NNW 11.5 mph - N/A   Scattered Clouds
11:50 AM 53.6 °F - 37.4 °F 54% 30.21 in 6.2 mi NNW 11.5 mph - N/A   Mostly Cloudy
12:50 PM 53.6 °F - 37.4 °F 54% 30.24 in 6.2 mi North 11.5 mph - N/A   Mostly Cloudy
1:20 PM 53.6 °F - 37.4 °F 54% 30.24 in 6.2 mi North 11.5 mph - N/A   Mostly Cloudy
1:50 PM 53.6 °F - 37.4 °F 54% 30.21 in 6.2 mi North 11.5 mph - N/A   Mostly Cloudy
2:20 PM 53.6 °F - 37.4 °F 54% 30.21 in 6.2 mi North 11.5 mph - N/A   Mostly Cloudy
2:50 PM 51.8 °F - 37.4 °F 58% 30.21 in 6.2 mi NNW 11.5 mph - N/A   Mostly Cloudy
3:20 PM 51.8 °F - 37.4 °F 58% 30.21 in 6.2 mi NNW 11.5 mph - N/A   Mostly Cloudy
3:50 PM 51.8 °F - 37.4 °F 58% 30.21 in 6.2 mi NNW 9.2 mph - N/A   Mostly Cloudy
4:20 PM 51.8 °F - 37.4 °F 58% 30.21 in 6.2 mi NNW 9.2 mph - N/A   Mostly Cloudy
4:50 PM 50.0 °F - 37.4 °F 62% 30.24 in 6.2 mi NW 6.9 mph - N/A   Mostly Cloudy
5:20 PM 50.0 °F - 37.4 °F 62% 30.24 in 6.2 mi NW 6.9 mph - N/A   Mostly Cloudy
5:50 PM 48.2 °F - 37.4 °F 66% 30.24 in 6.2 mi NNW 4.6 mph - N/A   Mostly Cloudy
6:20 PM 48.2 °F - 37.4 °F 66% 30.24 in 6.2 mi NNW 4.6 mph - N/A   Mostly Cloudy
6:50 PM 48.2 °F - 37.4 °F 66% 30.24 in 6.2 mi NNW 6.9 mph - N/A   Mostly Cloudy
7:20 PM 48.2 °F - 37.4 °F 66% 30.24 in 6.2 mi NNW 9.2 mph - N/A   Mostly Cloudy
7:50 PM 48.2 °F - 37.4 °F 66% 30.24 in 6.2 mi NNW 9.2 mph - N/A   Partly Cloudy
8:20 PM 48.2 °F - 37.4 °F 66% 30.24 in 6.2 mi NNW 4.6 mph - N/A   Partly Cloudy
8:50 PM 48.2 °F - 37.4 °F 66% 30.27 in 6.2 mi NNW 5.8 mph - N/A   Partly Cloudy
9:20 PM 48.2 °F - 37.4 °F 66% 30.27 in 6.2 mi NNW 6.9 mph - N/A   Mostly Cloudy
9:50 PM 48.2 °F - 37.4 °F 66% 30.27 in 6.2 mi Variable 3.5 mph - N/A   Mostly Cloudy
10:20 PM 48.2 °F - 37.4 °F 66% 30.27 in 6.2 mi Variable 3.5 mph - N/A   Mostly Cloudy
10:50 PM 48.2 °F - 37.4 °F 66% 30.27 in 6.2 mi Variable 3.5 mph - N/A   Mostly Cloudy
11:20 PM 48.2 °F - 37.4 °F 66% 30.27 in 6.2 mi Variable 3.5 mph - N/A   Mostly Cloudy
11:50 PM 48.2 °F - 39.2 °F 71% 30.27 in 6.2 mi NNW 4.6 mph - N/A   Mostly Cloudy